CW3783 Weather Reports


Display with metric or nautical units.
time (UTC)temp
F
wind
direction
speed
MPH
gust
MPH
rain 1hr
in
rain 24hr
in
rain mn
in
humidity
%
barometer
mb
20260831005805 82 298 0.0 3.0 0.07 0.07 0.07 79 1017.2
20260831005306 82 298 0.0 2.0 0.07 0.07 0.07 78 1017.1
20260831004804 83 298 2.0 5.0 0.07 0.07 0.07 78 1017.2
20260831004304 83 337 2.0 8.0 0.06 0.06 0.06 77 1017.2
20260831003804 83 242 2.0 5.0 0.00 0.00 0.00 74 1017.1
20260831003305 83 163 2.0 5.0 0.00 0.00 0.00 74 1016.8
20260831002804 83 175 2.0 5.0 0.00 0.00 0.00 74 1016.7
20260831001803 84 177 2.0 3.0 0.00 0.00 0.00 75 1016.6
20260831001304 84 185 2.0 3.0 0.00 0.00 0.00 75 1016.7
20260831000803 84 170 3.0 5.0 0.00 0.00 0.00 74 1016.6
20260831000303 84 152 5.0 9.0 0.00 0.00 0.00 73 1016.5
20260830235804 84 147 5.0 8.0 0.00 0.00 0.00 73 1016.4
20260830235306 85 164 5.0 8.0 0.00 0.00 0.00 72 1016.3
20260830234804 85 175 2.0 3.0 0.00 0.00 0.00 71 1016.3
20260830234303 85 166 3.0 5.0 0.00 0.00 0.00 70 1016.2
20260830233804 85 175 3.0 3.0 0.00 0.00 0.00 69 1016.3
20260830233303 85 174 5.0 6.0 0.00 0.00 0.00 68 1016.3
20260830232804 85 150 2.0 5.0 0.00 0.00 0.00 67 1016.3
20260830232306 86 163 3.0 8.0 0.00 0.00 0.00 67 1016.4
20260830231804 86 187 2.0 8.0 0.00 0.00 0.00 66 1016.4
20260830230804 86 353 0.0 0.0 0.00 0.00 0.00 64 1016.5
20260830230305 87 353 0.0 0.0 0.00 0.00 0.00 64 1016.5
20260830225803 87 353 0.0 1.0 0.00 0.00 0.00 63 1016.5
20260830225305 87 353 0.0 2.0 0.00 0.00 0.00 63 1016.5
20260830224804 87 353 0.0 2.0 0.00 0.00 0.00 62 1016.5
20260830224304 88 353 1.0 2.0 0.00 0.00 0.00 61 1016.4
20260830223304 88 56 0.0 3.0 0.00 0.00 0.00 60 1016.4
20260830222804 88 330 0.0 2.0 0.00 0.00 0.00 61 1016.5
20260830221304 89 351 1.0 2.0 0.00 0.00 0.00 59 1016.3
20260830220803 89 351 2.0 3.0 0.00 0.00 0.00 60 1016.4
20260830220304 88 266 1.0 3.0 0.00 0.00 0.00 62 1016.4
20260830215803 88 337 2.0 5.0 0.00 0.00 0.00 61 1016.3
20260830215305 88 7 4.0 5.0 0.00 0.00 0.00 61 1016.2
20260830214803 88 291 2.0 3.0 0.00 0.00 0.00 62 1016.3
20260830213803 88 301 2.0 6.0 0.00 0.00 0.00 63 1016.3
20260830213303 88 299 2.0 8.0 0.00 0.00 0.00 63 1016.2
20260830212804 88 312 3.0 7.0 0.00 0.00 0.00 63 1016.2
20260830212306 88 247 2.0 6.0 0.00 0.00 0.00 63 1016.2
20260830211804 88 296 3.0 6.0 0.00 0.00 0.00 63 1016.2
20260830211303 88 285 2.0 3.0 0.00 0.00 0.00 62 1016.2
20260830210803 88 281 1.0 3.0 0.00 0.00 0.00 61 1016.3
20260830210304 89 274 2.0 6.0 0.00 0.00 0.00 60 1016.3
20260830205803 89 278 5.0 9.0 0.00 0.00 0.00 60 1016.4
20260830205305 89 292 5.0 9.0 0.00 0.00 0.00 59 1016.4
20260830204804 90 310 3.0 8.0 0.00 0.00 0.00 59 1016.5
20260830204304 90 307 3.0 12.0 0.00 0.00 0.00 58 1016.5
20260830203804 90 33 1.0 6.0 0.00 0.00 0.00 57 1016.6
20260830203303 90 302 2.0 8.0 0.00 0.00 0.00 59 1016.6
20260830202804 90 305 5.0 9.0 0.00 0.00 0.00 59 1016.6
20260830202305 89 305 5.0 9.0 0.00 0.00 0.00 58 1016.6
20260830201804 89 268 3.0 8.0 0.00 0.00 0.00 58 1016.5
20260830201304 90 293 4.0 12.0 0.00 0.00 0.00 57 1016.4
20260830200304 90 257 3.0 7.0 0.00 0.00 0.00 57 1016.3
20260830195803 90 231 2.0 7.0 0.00 0.00 0.00 58 1016.4
20260830195305 90 262 4.0 12.0 0.00 0.00 0.00 57 1016.4
20260830194804 90 205 6.0 10.0 0.00 0.00 0.00 58 1016.5
20260830194304 90 283 5.0 9.0 0.00 0.00 0.00 60 1016.5
20260830193804 90 269 3.0 7.0 0.00 0.00 0.00 59 1016.7
20260830193305 89 213 3.0 10.0 0.00 0.00 0.00 61 1016.9
20260830192803 89 245 4.0 9.0 0.00 0.00 0.00 60 1017.0
20260830192305 89 281 3.0 9.0 0.00 0.00 0.00 60 1017.1
20260830191804 88 278 3.0 9.0 0.00 0.00 0.00 61 1017.2
20260830191304 88 269 5.0 12.0 0.00 0.00 0.00 62 1017.4
20260830190304 88 207 3.0 12.0 0.00 0.00 0.00 61 1017.6
20260830185804 87 194 4.0 10.0 0.00 0.00 0.00 64 1017.6
20260830184804 87 252 2.0 5.0 0.00 0.00 0.00 64 1017.7
20260830184304 86 250 4.0 10.0 0.00 0.00 0.00 66 1017.8
20260830183804 86 290 4.0 10.0 0.00 0.00 0.00 66 1017.8
20260830183303 86 18 3.0 8.0 0.00 0.00 0.00 68 1017.8
20260830182804 85 255 2.0 9.0 0.00 0.00 0.00 67 1017.9
20260830182306 85 214 3.0 7.0 0.00 0.00 0.00 66 1018.0
20260830181804 85 275 5.0 9.0 0.00 0.00 0.00 66 1018.2
20260830181304 86 272 5.0 8.0 0.00 0.00 0.00 66 1018.3
20260830180803 86 279 5.0 10.0 0.00 0.00 0.00 65 1018.4
20260830175804 86 242 6.0 12.0 0.00 0.00 0.00 65 1018.5
20260830175305 86 211 7.0 13.0 0.00 0.00 0.00 64 1018.5
20260830174803 86 216 6.0 14.0 0.00 0.00 0.00 63 1018.6
20260830174304 86 213 9.0 17.0 0.00 0.00 0.00 64 1018.6
20260830173804 86 197 5.0 12.0 0.00 0.00 0.00 66 1018.6
20260830173303 86 207 7.0 14.0 0.00 0.00 0.00 64 1018.7
20260830172804 86 193 5.0 14.0 0.00 0.00 0.00 66 1018.8
20260830172306 85 248 6.0 13.0 0.00 0.00 0.00 65 1018.8
20260830171803 85 222 6.0 14.0 0.00 0.00 0.00 67 1018.9
20260830171303 85 190 5.0 12.0 0.00 0.00 0.00 67 1018.9
20260830170304 84 252 7.0 10.0 0.00 0.00 0.00 68 1019.2
20260830165804 84 274 6.0 12.0 0.00 0.00 0.00 69 1019.1
20260830165306 84 212 5.0 12.0 0.00 0.00 0.00 69 1019.2
20260830164804 83 226 5.0 12.0 0.00 0.00 0.00 69 1019.2
20260830164304 83 263 6.0 13.0 0.00 0.00 0.00 69 1019.3
20260830163304 83 238 3.0 10.0 0.00 0.00 0.00 71 1019.5
20260830162306 83 228 7.0 16.0 0.00 0.00 0.00 71 1019.6
20260830161803 83 227 7.0 15.0 0.00 0.00 0.00 72 1019.7
20260830161304 82 259 7.0 14.0 0.00 0.00 0.00 73 1019.8
20260830160804 82 230 6.0 13.0 0.00 0.00 0.00 74 1019.9
20260830155804 81 212 8.0 15.0 0.00 0.00 0.00 75 1019.9
20260830155306 81 190 5.0 12.0 0.00 0.00 0.00 76 1019.9
20260830154804 80 195 5.0 8.0 0.00 0.00 0.00 76 1019.8
20260830154304 80 197 7.0 14.0 0.00 0.00 0.00 77 1019.9
20260830153803 80 212 6.0 12.0 0.00 0.00 0.00 77 1019.9
20260830153304 80 208 7.0 14.0 0.00 0.00 0.00 77 1019.9
20260830152804 80 172 7.0 14.0 0.00 0.00 0.00 77 1020.0
20260830152306 80 175 8.0 13.0 0.00 0.00 0.00 77 1019.9
20260830151803 80 197 7.0 14.0 0.00 0.00 0.00 79 1019.8
20260830151304 80 213 6.0 17.0 0.00 0.00 0.00 79 1019.8
20260830150804 79 204 7.0 16.0 0.00 0.00 0.00 81 1019.7
20260830150304 79 193 8.0 14.0 0.00 0.00 0.00 81 1019.8
20260830145804 79 222 6.0 13.0 0.00 0.00 0.00 81 1019.8
20260830144803 78 175 6.0 12.0 0.00 0.00 0.00 82 1019.8
20260830144304 78 180 5.0 9.0 0.00 0.00 0.00 83 1019.8
20260830143804 78 202 7.0 15.0 0.00 0.00 0.00 83 1019.8
20260830143304 77 196 7.0 14.0 0.00 0.00 0.00 84 1019.7
20260830142803 77 213 5.0 12.0 0.00 0.00 0.00 85 1019.8
20260830142306 77 175 6.0 13.0 0.00 0.00 0.00 85 1019.9
20260830141803 76 181 8.0 15.0 0.00 0.00 0.00 85 1019.9
20260830141304 76 189 6.0 12.0 0.00 0.00 0.00 85 1019.9
20260830140804 76 179 6.0 12.0 0.00 0.00 0.00 85 1019.9
20260830140304 76 187 6.0 12.0 0.00 0.00 0.00 85 1020.0
20260830135804 76 194 6.0 13.0 0.00 0.00 0.00 85 1020.0
20260830134803 76 187 8.0 12.0 0.00 0.00 0.00 85 1020.1
20260830134303 76 185 3.0 12.0 0.00 0.00 0.00 85 1020.1
20260830133803 76 198 7.0 13.0 0.00 0.00 0.00 85 1020.2
20260830133304 76 214 6.0 14.0 0.00 0.00 0.00 85 1020.2
20260830132804 76 190 9.0 13.0 0.00 0.00 0.00 86 1020.2
20260830132305 76 155 4.0 12.0 0.00 0.00 0.00 87 1020.3
20260830131803 75 181 6.0 12.0 0.00 0.00 0.00 87 1020.3
20260830131304 75 182 5.0 12.0 0.00 0.00 0.00 87 1020.4
20260830130804 75 172 7.0 12.0 0.00 0.00 0.00 88 1020.6
20260830130304 75 200 5.0 9.0 0.00 0.00 0.00 88 1020.7
20260830125804 75 180 3.0 8.0 0.00 0.00 0.00 89 1020.7
20260830125306 74 181 3.0 8.0 0.00 0.00 0.00 89 1020.8
20260830124804 74 176 3.0 6.0 0.00 0.00 0.00 89 1020.9
20260830124303 74 168 6.0 12.0 0.00 0.00 0.00 90 1020.8
20260830123803 73 220 4.0 12.0 0.00 0.00 0.00 90 1020.8
20260830123303 73 206 6.0 10.0 0.00 0.00 0.00 90 1020.9
20260830122803 73 184 3.0 9.0 0.00 0.00 0.00 90 1020.9
20260830122306 73 204 1.0 3.0 0.00 0.00 0.00 90 1021.0
20260830121803 72 198 1.0 3.0 0.00 0.00 0.00 90 1020.9
20260830121304 72 198 0.0 3.0 0.00 0.00 0.00 90 1021.0
20260830120804 72 198 1.0 3.0 0.00 0.00 0.00 90 1021.0
20260830120304 72 198 1.0 3.0 0.00 0.00 0.00 89 1021.0
20260830115804 72 198 0.0 2.0 0.00 0.00 0.00 89 1020.9
20260830115306 71 198 1.0 3.0 0.00 0.00 0.00 89 1020.8
20260830114804 71 198 1.0 3.0 0.00 0.00 0.00 89 1020.9
20260830114303 71 194 2.0 3.0 0.00 0.00 0.00 88 1020.8
20260830113303 71 213 2.0 3.0 0.00 0.00 0.00 88 1020.9
20260830112803 71 213 1.0 3.0 0.00 0.00 0.00 88 1021.0
20260830112306 70 213 1.0 3.0 0.00 0.00 0.00 87 1020.9
20260830111305 70 213 2.0 3.0 0.00 0.00 0.00 87 1020.9
20260830110803 70 213 2.0 3.0 0.00 0.00 0.00 87 1020.9
20260830110303 70 213 1.0 3.0 0.00 0.00 0.00 86 1021.0
20260830105804 70 213 1.0 3.0 0.00 0.00 0.00 86 1020.9
20260830105305 70 213 0.0 2.0 0.00 0.00 0.00 85 1020.9
20260830104803 70 213 1.0 2.0 0.00 0.00 0.00 84 1020.8
20260830104304 70 213 1.0 2.0 0.00 0.00 0.00 84 1020.8
20260830103804 70 213 1.0 3.0 0.00 0.00 0.00 84 1020.7
20260830103304 70 213 2.0 3.0 0.00 0.00 0.00 83 1020.6
20260830102803 70 150 2.0 3.0 0.00 0.00 0.00 83 1020.6
20260830102306 70 194 1.0 3.0 0.00 0.00 0.00 83 1020.7
20260830101804 70 194 1.0 3.0 0.00 0.00 0.00 83 1020.7
20260830101304 70 194 1.0 3.0 0.00 0.00 0.00 83 1020.7
20260830100804 70 194 1.0 2.0 0.00 0.00 0.00 83 1020.7
20260830100304 70 194 0.0 0.0 0.00 0.00 0.00 83 1020.7
20260830095803 70 194 1.0 2.0 0.00 0.00 0.00 83 1020.7
20260830095306 70 194 1.0 2.0 0.00 0.00 0.00 83 1020.7
20260830094303 70 194 1.0 3.0 0.00 0.00 0.00 83 1020.8
20260830092804 69 194 2.0 3.0 0.00 0.00 0.00 84 1020.8
20260830092306 69 180 2.0 3.0 0.00 0.00 0.00 84 1020.8
20260830091804 69 189 1.0 3.0 0.00 0.00 0.00 83 1020.8
20260830091304 69 221 2.0 3.0 0.00 0.00 0.00 83 1020.7
20260830090804 69 221 0.0 0.0 0.00 0.00 0.00 83 1020.7
20260830090303 69 221 0.0 0.0 0.00 0.00 0.00 82 1020.7
20260830085804 69 221 0.0 0.0 0.00 0.00 0.00 82 1020.6
20260830085306 69 221 0.0 0.0 0.00 0.00 0.00 82 1020.5
20260830084803 69 221 0.0 0.0 0.00 0.00 0.00 82 1020.6
20260830084303 69 221 0.0 0.0 0.00 0.00 0.00 81 1020.6
20260830083803 69 221 0.0 0.0 0.00 0.00 0.00 81 1020.7
20260830083304 69 221 0.0 0.0 0.00 0.00 0.00 81 1020.8
20260830082803 69 221 0.0 0.0 0.00 0.00 0.00 81 1020.8
20260830082306 69 221 0.0 0.0 0.00 0.00 0.00 81 1020.9
20260830081803 69 221 0.0 0.0 0.00 0.00 0.00 80 1020.8
20260830081303 69 221 0.0 0.0 0.00 0.00 0.00 81 1020.7
20260830080803 69 221 0.0 0.0 0.00 0.00 0.00 81 1020.8
20260830080303 69 221 0.0 0.0 0.00 0.00 0.00 81 1020.8
20260830075803 69 221 0.0 0.0 0.00 0.00 0.00 80 1020.8
20260830075306 69 221 0.0 0.0 0.00 0.00 0.00 80 1020.8
20260830074803 69 221 0.0 0.0 0.00 0.00 0.00 80 1020.7
20260830074304 69 221 0.0 0.0 0.00 0.00 0.00 81 1020.8
20260830073804 69 221 0.0 0.0 0.00 0.00 0.00 81 1020.8
20260830073304 69 221 0.0 0.0 0.00 0.00 0.00 81 1020.8
20260830072804 69 221 0.0 0.0 0.00 0.00 0.00 81 1020.8
20260830072306 69 221 0.0 0.0 0.00 0.00 0.00 81 1020.8
20260830071805 69 221 0.0 0.0 0.00 0.00 0.00 81 1020.9
20260830070803 69 221 0.0 0.0 0.00 0.00 0.00 81 1021.0
20260830070303 69 221 0.0 0.0 0.00 0.00 0.00 81 1021.0
20260830064803 68 221 0.0 0.0 0.00 0.00 0.00 81 1021.1
20260830064303 68 221 0.0 0.0 0.00 0.00 0.00 81 1021.1
20260830063803 68 221 0.0 0.0 0.00 0.00 0.00 81 1021.1
20260830063303 68 221 0.0 0.0 0.00 0.00 0.00 81 1021.2
20260830062805 68 221 0.0 0.0 0.00 0.00 0.00 81 1021.2
20260830062305 68 221 0.0 0.0 0.00 0.00 0.00 81 1021.2
20260830061803 68 221 0.0 0.0 0.00 0.00 0.00 80 1021.3
20260830060303 68 221 0.0 0.0 0.00 0.00 0.00 80 1021.3
20260830055803 68 221 0.0 0.0 0.00 0.00 0.00 80 1021.4
20260830055306 68 221 0.0 0.0 0.00 0.00 0.00 79 1021.4
20260830054304 68 221 0.0 0.0 0.00 0.00 0.00 79 1021.5
20260830053804 68 221 0.0 0.0 0.00 0.00 0.00 79 1021.5
20260830052804 68 221 0.0 0.0 0.00 0.00 0.00 79 1021.4
20260830052306 68 221 0.0 0.0 0.00 0.00 0.00 79 1021.5
20260830051803 68 221 0.0 0.0 0.00 0.00 0.00 79 1021.5
20260830050303 68 221 0.0 0.0 0.00 0.00 0.00 79 1021.5
20260830045803 68 221 0.0 0.0 0.00 0.00 0.00 79 1021.5
20260830045306 69 221 0.0 0.0 0.00 0.00 0.00 79 1021.3
20260830044803 69 221 0.0 0.0 0.00 0.00 0.00 79 1021.3
20260830044304 69 221 0.0 0.0 0.00 0.00 0.00 78 1021.3
20260830043804 69 221 0.0 0.0 0.00 0.00 0.00 78 1021.2
20260830043303 69 221 0.0 0.0 0.00 0.00 0.00 78 1021.3
20260830042804 69 221 0.0 0.0 0.00 0.00 0.00 77 1021.2
20260830042306 69 221 0.0 0.0 0.00 0.00 0.00 77 1021.1
20260830041303 69 221 0.0 0.0 0.00 0.00 0.00 76 1021.1
20260830040303 69 221 0.0 0.0 0.00 0.00 0.00 75 1021.0
20260830035803 69 221 0.0 0.0 0.00 0.00 0.00 75 1021.0
20260830035306 70 221 0.0 0.0 0.00 0.00 0.00 75 1021.0
20260830034804 70 221 0.0 0.0 0.00 0.00 0.00 75 1021.1
20260830034304 70 221 0.0 0.0 0.00 0.00 0.00 74 1021.1
20260830033804 70 221 0.0 0.0 0.00 0.00 0.00 73 1021.0
20260830033303 70 221 0.0 0.0 0.00 0.00 0.00 73 1021.0
20260830032804 70 221 0.0 0.0 0.00 0.00 0.00 73 1021.0
20260830031804 70 221 0.0 0.0 0.00 0.00 0.00 72 1021.0
20260830031303 70 221 0.0 0.0 0.00 0.00 0.00 72 1021.0
20260830030803 70 221 0.0 0.0 0.00 0.00 0.00 72 1021.0
20260830030303 71 221 0.0 0.0 0.00 0.00 0.00 72 1021.0
20260830025803 71 221 0.0 0.0 0.00 0.00 0.00 72 1021.0
20260830025306 71 221 0.0 0.0 0.00 0.00 0.00 71 1021.0
20260830024804 71 221 0.0 0.0 0.00 0.00 0.00 71 1021.0
20260830024303 71 221 0.0 0.0 0.00 0.00 0.00 70 1021.0
20260830023303 71 221 0.0 0.0 0.00 0.00 0.00 70 1021.0
20260830022803 71 221 0.0 0.0 0.00 0.00 0.00 70 1021.0
20260830022306 71 221 0.0 0.0 0.00 0.00 0.00 70 1021.1
20260830021803 72 221 0.0 0.0 0.00 0.00 0.00 69 1021.1
20260830020803 72 221 0.0 0.0 0.00 0.00 0.00 68 1021.1
20260830020304 72 221 0.0 0.0 0.00 0.00 0.00 68 1021.1
20260830015804 72 221 0.0 0.0 0.00 0.00 0.00 67 1021.1
20260830015306 72 221 0.0 0.0 0.00 0.00 0.00 67 1021.0
20260830014804 72 221 0.0 0.0 0.00 0.00 0.00 67 1021.0
20260830014304 72 160 0.0 0.0 0.00 0.00 0.00 66 1021.0
20260830013804 73 160 0.0 2.0 0.00 0.00 0.00 65 1020.9
20260830013303 73 160 0.0 2.0 0.00 0.00 0.00 65 1020.9
20260830012803 73 160 0.0 0.0 0.00 0.00 0.00 64 1020.8
20260830012306 73 160 0.0 0.0 0.00 0.00 0.00 64 1020.8
20260830011304 74 160 0.0 0.0 0.00 0.00 0.00 63 1020.7
20260830010804 74 160 0.0 0.0 0.00 0.00 0.00 63 1020.7
20260830010305 74 160 0.0 0.0 0.00 0.00 0.00 63 1020.7